VHBNZ YGDI-YCMU

Flight info

Callsign VHBNZ
Flight time N/A
Altitude 8500
Route YTWD NDI YSGE YBLL
Aircraft BE36/L-VGDW/C

Departure

Time 2026-05-07 05:35
Airport Goondiwindi Airport (YGDI)

Arrival

Time N/A
Airport Cunnamulla Airport (YCMU)
Time Latitude Longitude Altitude Speed Heading
2026-05-07 05:31 -28.51833 150.32444 718 ft 0 kts 222°
2026-05-07 05:34 -28.51859 150.32417 719 ft 27 kts 222°
2026-05-07 05:34 -28.52153 150.32114 752 ft 76 kts 223°
2026-05-07 05:34 -28.52555 150.31668 1069 ft 87 kts 221°
2026-05-07 05:35 -28.53017 150.31246 1575 ft 83 kts 220°
2026-05-07 05:35 -28.53426 150.30797 2063 ft 81 kts 223°
2026-05-07 05:35 -28.53841 150.30361 2497 ft 82 kts 220°
2026-05-07 05:35 -28.54266 150.29928 2975 ft 83 kts 228°
2026-05-07 05:36 -28.54270 150.29268 3444 ft 92 kts 275°
2026-05-07 05:36 -28.54120 150.28572 3855 ft 91 kts 270°
2026-05-07 05:36 -28.53972 150.27865 4231 ft 92 kts 270°
2026-05-07 05:36 -28.53831 150.27155 4565 ft 92 kts 271°
2026-05-07 05:37 -28.53684 150.26438 4907 ft 93 kts 272°
2026-05-07 05:37 -28.53540 150.25720 5244 ft 93 kts 271°
2026-05-07 05:37 -28.53409 150.25003 5563 ft 92 kts 272°
2026-05-07 05:37 -28.53288 150.24300 5872 ft 92 kts 271°
2026-05-07 05:38 -28.53173 150.23587 6158 ft 92 kts 271°
2026-05-07 05:38 -28.53067 150.22873 6434 ft 91 kts 271°
2026-05-07 05:38 -28.52966 150.22161 6686 ft 91 kts 271°
2026-05-07 05:38 -28.52867 150.21445 6926 ft 92 kts 271°
2026-05-07 05:39 -28.52769 150.20726 7166 ft 92 kts 271°
2026-05-07 05:39 -28.52669 150.20010 7402 ft 92 kts 271°
2026-05-07 05:39 -28.52569 150.19289 7622 ft 92 kts 271°
2026-05-07 05:39 -28.52473 150.18569 7827 ft 92 kts 271°
2026-05-07 05:40 -28.52373 150.17846 8026 ft 93 kts 271°
2026-05-07 05:40 -28.52279 150.17126 8210 ft 93 kts 271°
2026-05-07 05:40 -28.52183 150.16394 8391 ft 94 kts 271°
2026-05-07 05:40 -28.52090 150.15647 8497 ft 101 kts 271°
2026-05-07 05:41 -28.51988 150.14809 8511 ft 113 kts 272°
2026-05-07 05:41 -28.51882 150.13885 8513 ft 121 kts 271°
2026-05-07 05:41 -28.51858 150.12908 8511 ft 128 kts 265°
2026-05-07 05:41 -28.51872 150.11855 8513 ft 138 kts 265°
2026-05-07 05:42 -28.51888 150.10739 8514 ft 144 kts 265°
2026-05-07 05:42 -28.51869 150.09581 8513 ft 148 kts 268°
2026-05-07 05:42 -28.51827 150.08398 8514 ft 151 kts 268°
2026-05-07 05:42 -28.51785 150.07201 8512 ft 152 kts 268°
2026-05-07 05:43 -28.51743 150.05992 8510 ft 153 kts 268°
2026-05-07 05:43 -28.51701 150.04784 8516 ft 153 kts 268°
2026-05-07 05:43 -28.51659 150.03585 8512 ft 154 kts 268°
2026-05-07 05:43 -28.51620 150.02369 8513 ft 154 kts 268°
2026-05-07 05:44 -28.51578 150.01153 8514 ft 154 kts 268°
2026-05-07 05:44 -28.51534 149.99938 8516 ft 154 kts 268°
2026-05-07 05:44 -28.51491 149.98722 8512 ft 153 kts 268°
2026-05-07 05:44 -28.51464 149.97508 8514 ft 153 kts 267°
2026-05-07 05:45 -28.51440 149.96293 8514 ft 153 kts 268°
2026-05-07 05:45 -28.51419 149.95080 8512 ft 153 kts 267°
2026-05-07 05:45 -28.51396 149.93868 8511 ft 153 kts 268°
2026-05-07 05:45 -28.51377 149.92668 8513 ft 154 kts 267°
2026-05-07 05:46 -28.51357 149.91451 8514 ft 154 kts 267°
2026-05-07 05:46 -28.51336 149.90234 8514 ft 154 kts 267°
2026-05-07 05:46 -28.51312 149.89016 8515 ft 154 kts 267°
2026-05-07 05:46 -28.51288 149.87800 8516 ft 154 kts 267°
2026-05-07 05:47 -28.51265 149.86584 8516 ft 154 kts 267°
2026-05-07 05:47 -28.51238 149.85368 8518 ft 154 kts 267°
2026-05-07 05:47 -28.51217 149.84154 8516 ft 153 kts 267°
2026-05-07 05:47 -28.51194 149.82942 8515 ft 153 kts 267°
2026-05-07 05:48 -28.51168 149.81728 8516 ft 153 kts 267°
2026-05-07 05:48 -28.51139 149.80518 8517 ft 153 kts 267°
2026-05-07 05:48 -28.51110 149.79300 8518 ft 154 kts 267°
2026-05-07 05:48 -28.51080 149.78081 8518 ft 154 kts 268°
2026-05-07 05:49 -28.51055 149.76865 8515 ft 154 kts 267°
2026-05-07 05:49 -28.51034 149.75665 8518 ft 154 kts 267°
2026-05-07 05:49 -28.51009 149.74445 8519 ft 154 kts 267°
2026-05-07 05:49 -28.50983 149.73226 8519 ft 154 kts 267°
2026-05-07 05:50 -28.50951 149.72002 8519 ft 154 kts 267°
2026-05-07 05:50 -28.50918 149.70783 8522 ft 154 kts 267°
2026-05-07 05:50 -28.50896 149.69974 8520 ft 154 kts 267°
2026-05-07 05:50 -28.50852 149.68365 8517 ft 154 kts 267°
2026-05-07 05:51 -28.50819 149.67146 8516 ft 153 kts 267°
2026-05-07 05:51 -28.50800 149.66343 8515 ft 153 kts 267°
2026-05-07 05:51 -28.50758 149.64721 8516 ft 153 kts 267°
2026-05-07 05:51 -28.50736 149.63918 8516 ft 153 kts 267°
2026-05-07 05:52 -28.50704 149.62705 8519 ft 153 kts 267°
2026-05-07 05:52 -28.50671 149.61492 8520 ft 154 kts 267°
2026-05-07 05:52 -28.50636 149.60278 8516 ft 154 kts 267°
2026-05-07 05:52 -28.50685 149.59072 8521 ft 152 kts 261°
2026-05-07 05:53 -28.50799 149.57870 8517 ft 152 kts 260°
2026-05-07 05:53 -28.50910 149.56671 8519 ft 152 kts 261°
2026-05-07 05:53 -28.51024 149.55473 8518 ft 152 kts 260°
2026-05-07 05:53 -28.51134 149.54293 8519 ft 152 kts 260°
2026-05-07 05:54 -28.51246 149.53098 8519 ft 152 kts 260°
2026-05-07 05:54 -28.51356 149.51901 8517 ft 152 kts 260°
2026-05-07 05:54 -28.51344 149.50695 8521 ft 157 kts 279°
2026-05-07 05:54 -28.50953 149.49522 8522 ft 159 kts 285°
2026-05-07 05:55 -28.50544 149.48350 8523 ft 159 kts 283°
2026-05-07 05:55 -28.50231 149.47153 8525 ft 158 kts 279°
2026-05-07 05:55 -28.49935 149.45950 8527 ft 158 kts 279°
2026-05-07 05:55 -28.49640 149.44751 8523 ft 157 kts 279°
2026-05-07 05:56 -28.49345 149.43553 8528 ft 157 kts 279°
2026-05-07 05:56 -28.49050 149.42355 8528 ft 157 kts 279°
2026-05-07 05:56 -28.48754 149.41159 8526 ft 157 kts 279°
2026-05-07 05:56 -28.48458 149.39965 8526 ft 157 kts 279°
2026-05-07 05:57 -28.48162 149.38770 8528 ft 157 kts 279°
2026-05-07 05:57 -28.47866 149.37571 8524 ft 157 kts 279°
2026-05-07 05:57 -28.47571 149.36369 8528 ft 158 kts 279°
2026-05-07 05:57 -28.47279 149.35165 8524 ft 158 kts 279°
2026-05-07 05:58 -28.46989 149.33978 8527 ft 158 kts 279°
2026-05-07 05:58 -28.46696 149.32775 8527 ft 158 kts 279°
2026-05-07 05:58 -28.46404 149.31567 8529 ft 159 kts 279°
2026-05-07 05:58 -28.46112 149.30356 8524 ft 159 kts 279°
2026-05-07 05:59 -28.45819 149.29142 8525 ft 159 kts 279°
2026-05-07 05:59 -28.45528 149.27931 8527 ft 159 kts 279°
2026-05-07 05:59 -28.45236 149.26720 8528 ft 159 kts 279°
2026-05-07 05:59 -28.44942 149.25510 8526 ft 159 kts 279°
2026-05-07 06:00 -28.44648 149.24316 8528 ft 158 kts 279°
2026-05-07 06:00 -28.44348 149.23110 8525 ft 158 kts 279°
2026-05-07 06:00 -28.44048 149.21904 8526 ft 159 kts 279°
2026-05-07 06:00 -28.43749 149.20696 8526 ft 159 kts 279°
2026-05-07 06:01 -28.43450 149.19483 8525 ft 159 kts 279°
2026-05-07 06:01 -28.43150 149.18270 8526 ft 159 kts 279°
2026-05-07 06:01 -28.42854 149.17056 8525 ft 159 kts 279°
2026-05-07 06:01 -28.42558 149.15843 8526 ft 159 kts 279°
2026-05-07 06:02 -28.42260 149.14629 8526 ft 159 kts 279°
2026-05-07 06:02 -28.41965 149.13419 8522 ft 159 kts 279°
2026-05-07 06:02 -28.41668 149.12206 8528 ft 159 kts 279°
2026-05-07 06:02 -28.41370 149.10996 8527 ft 159 kts 279°
2026-05-07 06:03 -28.41071 149.09788 8526 ft 159 kts 279°
2026-05-07 06:03 -28.40777 149.08596 8526 ft 159 kts 279°
2026-05-07 06:03 -28.40478 149.07387 8523 ft 159 kts 279°
2026-05-07 06:03 -28.40181 149.06180 8529 ft 159 kts 279°
2026-05-07 06:04 -28.39885 149.04971 8530 ft 159 kts 279°
2026-05-07 06:04 -28.39586 149.03759 8528 ft 159 kts 279°
2026-05-07 06:04 -28.39286 149.02543 8530 ft 160 kts 279°
2026-05-07 06:04 -28.39008 149.01326 8533 ft 158 kts 275°
2026-05-07 06:05 -28.38875 149.00100 8533 ft 156 kts 270°
2026-05-07 06:05 -28.38767 148.98886 8532 ft 156 kts 270°
2026-05-07 06:05 -28.38661 148.97656 8531 ft 157 kts 270°
2026-05-07 06:05 -28.38554 148.96424 8533 ft 157 kts 270°
2026-05-07 06:06 -28.38448 148.95188 8530 ft 157 kts 270°
2026-05-07 06:06 -28.38341 148.93954 8529 ft 157 kts 270°
2026-05-07 06:06 -28.38232 148.92720 8531 ft 157 kts 270°
2026-05-07 06:06 -28.38123 148.91484 8530 ft 157 kts 270°
2026-05-07 06:07 -28.38014 148.90251 8530 ft 157 kts 270°
2026-05-07 06:07 -28.37905 148.89020 8528 ft 157 kts 270°
2026-05-07 06:07 -28.37797 148.87788 8533 ft 157 kts 270°
2026-05-07 06:07 -28.37688 148.86548 8536 ft 157 kts 270°
2026-05-07 06:08 -28.37575 148.85311 8539 ft 158 kts 270°
2026-05-07 06:08 -28.37459 148.84069 8537 ft 158 kts 270°
2026-05-07 06:08 -28.37306 148.82843 8535 ft 162 kts 282°
2026-05-07 06:08 -28.36532 148.81858 8536 ft 179 kts 324°
2026-05-07 06:09 -28.35385 148.81272 8538 ft 181 kts 329°
2026-05-07 06:09 -28.34224 148.80713 8538 ft 181 kts 330°
2026-05-07 06:09 -28.33067 148.80156 8539 ft 181 kts 330°
2026-05-07 06:09 -28.31907 148.79599 8541 ft 181 kts 330°
2026-05-07 06:10 -28.30750 148.79043 8543 ft 181 kts 330°
2026-05-07 06:10 -28.29589 148.78488 8544 ft 180 kts 330°
2026-05-07 06:10 -28.28473 148.77862 8542 ft 177 kts 321°
2026-05-07 06:10 -28.27431 148.77113 8539 ft 177 kts 320°
2026-05-07 06:11 -28.26405 148.76345 8542 ft 176 kts 319°
2026-05-07 06:11 -28.25385 148.75573 8543 ft 176 kts 319°
2026-05-07 06:11 -28.24361 148.74800 8542 ft 176 kts 319°
2026-05-07 06:11 -28.23338 148.74024 8541 ft 177 kts 319°
2026-05-07 06:12 -28.22313 148.73246 8543 ft 178 kts 319°
2026-05-07 06:12 -28.21285 148.72468 8538 ft 177 kts 319°
2026-05-07 06:12 -28.20271 148.71701 8537 ft 177 kts 319°
2026-05-07 06:12 -28.19246 148.70919 8541 ft 178 kts 319°
2026-05-07 06:13 -28.18219 148.70134 8541 ft 178 kts 319°
2026-05-07 06:13 -28.17191 148.69349 8540 ft 178 kts 319°
2026-05-07 06:13 -28.16169 148.68565 8542 ft 177 kts 319°
2026-05-07 06:13 -28.15184 148.67818 8039 ft 171 kts 319°
2026-05-07 06:14 -28.14179 148.67050 7356 ft 175 kts 319°
2026-05-07 06:14 -28.13176 148.66277 6736 ft 174 kts 319°
2026-05-07 06:14 -28.12182 148.65506 6104 ft 173 kts 319°
2026-05-07 06:14 -28.11198 148.64732 5485 ft 172 kts 320°
2026-05-07 06:15 -28.10226 148.63945 4883 ft 171 kts 320°
2026-05-07 06:15 -28.09280 148.63165 4284 ft 170 kts 319°
2026-05-07 06:15 -28.08326 148.62379 3713 ft 169 kts 319°
2026-05-07 06:15 -28.07373 148.61600 3123 ft 168 kts 319°
2026-05-07 06:16 -28.06422 148.60827 2559 ft 165 kts 319°
2026-05-07 06:16 -28.05515 148.60106 2053 ft 146 kts 319°
2026-05-07 06:16 -28.04741 148.59501 2035 ft 134 kts 319°
2026-05-07 06:16 -28.03853 148.59131 1980 ft 148 kts
2026-05-07 06:17 -28.02875 148.59634 1733 ft 162 kts 32°
2026-05-07 06:17 -28.01780 148.59829 1549 ft 160 kts 341°
2026-05-07 06:17 -28.01031 148.59101 1542 ft 134 kts 285°
2026-05-07 06:17 -28.01151 148.58182 1540 ft 117 kts 226°
2026-05-07 06:18 -28.01777 148.57610 1539 ft 115 kts 214°
2026-05-07 06:18 -28.02407 148.57039 1544 ft 118 kts 215°
2026-05-07 06:18 -28.03055 148.56472 1542 ft 117 kts 214°
2026-05-07 06:18 -28.03698 148.55916 1549 ft 119 kts 215°
2026-05-07 06:19 -28.04475 148.55784 1550 ft 122 kts 163°
2026-05-07 06:19 -28.05020 148.56567 1557 ft 136 kts 119°
2026-05-07 06:19 -28.05383 148.57559 1556 ft 135 kts 124°
2026-05-07 06:19 -28.05807 148.58511 1550 ft 136 kts 124°
2026-05-07 06:20 -28.06228 148.59466 1552 ft 132 kts 126°
2026-05-07 06:20 -28.06583 148.60313 1536 ft 102 kts 123°
2026-05-07 06:20 -28.06815 148.60964 1481 ft 86 kts 112°
2026-05-07 06:20 -28.06503 148.61610 1279 ft 100 kts 37°
2026-05-07 06:21 -28.05871 148.61675 1033 ft 84 kts 300°
2026-05-07 06:21 -28.05684 148.61125 959 ft 70 kts 269°
2026-05-07 06:21 -28.05558 148.60579 833 ft 78 kts 284°
2026-05-07 06:21 -28.05290 148.60033 677 ft 82 kts 291°
2026-05-07 06:22 -28.05049 148.59576 660 ft 52 kts 292°
2026-05-07 06:22 -28.04996 148.59547 660 ft 16 kts 53°
2026-05-07 06:22 -28.04890 148.59620 658 ft 14 kts 32°
2026-05-07 06:23 -28.04818 148.59660 658 ft 7 kts 318°
2026-05-07 06:23 -28.04806 148.59563 658 ft 18 kts 277°
2026-05-07 06:23 -28.04781 148.59460 658 ft 10 kts 303°
2026-05-07 06:23 -28.04766 148.59432 658 ft 0 kts 292°